When you browse on this site, cookies collect data to enhance your experience and personalize the content and advertising you see.
Visit our Privacy Policy to learn more. By continuing to use the site, you agree to this use of cookies and data.
  • In Hungary
  • List of Countries
  • For 7 days
  • Water Temperature
  • Weather Map
  • News
  • Weather Widgets
  • user-avatar
    Login

    Hourly Weather Tugurgoy

    Today, 22 February, Saturday

    Time Temperature Precipitation Wind Pressure Humidity
    00:00 +7°C° 0 mm 2 mps 760 mmHg 81%
    01:00 +7°C° 0 mm 2 mps 760 mmHg 81%
    02:00 +6°C° 0 mm 2 mps 760 mmHg 81%
    03:00 +6°C° 0 mm 2 mps 760 mmHg 80%
    04:00 +6°C° 0 mm 2 mps 760 mmHg 81%
    05:00 +5°C° 0 mm 2 mps 760 mmHg 81%
    06:00 +5°C° 0 mm 2 mps 760 mmHg 82%
    07:00 +5°C° 0.3 mm 2 mps 761 mmHg 83%
    08:00 +5°C° 0.3 mm 2 mps 761 mmHg 84%
    09:00 +5°C° 0 mm 2 mps 761 mmHg 84%
    10:00 +5°C° 0.7 mm 2 mps 761 mmHg 86%
    11:00 +5°C° 0.7 mm 2 mps 761 mmHg 87%
    12:00 +6°C° 0.7 mm 1 mps 762 mmHg 88%
    13:00 +6°C° 0.2 mm 1 mps 762 mmHg 88%
    14:00 +7°C° 0.2 mm 1 mps 762 mmHg 88%
    15:00 +6°C° 0.2 mm 0 mps 762 mmHg 88%
    16:00 +6°C° 0.2 mm 0 mps 762 mmHg 89%
    17:00 +7°C° 0.2 mm 1 mps 762 mmHg 91%
    18:00 +7°C° 0.2 mm 1 mps 762 mmHg 92%
    19:00 +6°C° 0.1 mm 1 mps 763 mmHg 93%
    20:00 +6°C° 0.1 mm 1 mps 763 mmHg 93%
    21:00 +5°C° 0.1 mm 2 mps 764 mmHg 93%
    22:00 +5°C° 0.1 mm 2 mps 764 mmHg 93%
    23:00 +5°C° 0.1 mm 2 mps 764 mmHg 93%

    Tomorrow, 23 February, Sunday

    Time Temperature Precipitation Wind Pressure Humidity
    00:00 +5°C° 0.1 mm 2 mps 764 mmHg 93%
    01:00 +4°C° 0.3 mm 3 mps 764 mmHg 93%
    02:00 +3°C° 0.3 mm 3 mps 764 mmHg 93%
    03:00 +3°C° 0.3 mm 3 mps 764 mmHg 93%
    04:00 +3°C° 0.2 mm 3 mps 764 mmHg 92%
    05:00 +3°C° 0.2 mm 3 mps 764 mmHg 90%
    06:00 +3°C° 0.2 mm 3 mps 764 mmHg 89%
    07:00 +3°C° 0 mm 3 mps 765 mmHg 86%
    08:00 +3°C° 0 mm 3 mps 765 mmHg 83%
    09:00 +3°C° 0 mm 3 mps 765 mmHg 80%
    10:00 +4°C° 0 mm 3 mps 765 mmHg 76%
    11:00 +5°C° 0 mm 3 mps 765 mmHg 72%
    12:00 +5°C° 0 mm 4 mps 765 mmHg 68%
    13:00 +6°C° 0 mm 4 mps 765 mmHg 66%
    14:00 +7°C° 0 mm 4 mps 764 mmHg 64%
    15:00 +7°C° 0 mm 5 mps 764 mmHg 62%
    16:00 +7°C° 0 mm 5 mps 764 mmHg 65%
    17:00 +6°C° 0 mm 5 mps 764 mmHg 68%
    18:00 +5°C° 0 mm 5 mps 763 mmHg 71%
    19:00 +5°C° 0 mm 5 mps 763 mmHg 72%
    20:00 +5°C° 0 mm 5 mps 763 mmHg 74%
    21:00 +5°C° 0 mm 5 mps 763 mmHg 75%
    22:00 +5°C° 0 mm 5 mps 763 mmHg 75%
    23:00 +4°C° 0 mm 6 mps 762 mmHg 75%

    Day after tomorrow, 24 February, Monday

    Time Temperature Precipitation Wind Pressure Humidity
    00:00 +4°C° 0 mm 6 mps 762 mmHg 75%
    01:00 +4°C° 0 mm 6 mps 762 mmHg 75%
    02:00 +4°C° 0 mm 6 mps 761 mmHg 76%
    03:00 +4°C° 0 mm 6 mps 761 mmHg 76%
    04:00 +4°C° 0 mm 6 mps 760 mmHg 76%
    05:00 +4°C° 0 mm 6 mps 759 mmHg 77%
    06:00 +4°C° 0 mm 6 mps 759 mmHg 78%
    07:00 +4°C° 0 mm 6 mps 758 mmHg 76%
    08:00 +5°C° 0 mm 7 mps 757 mmHg 75%
    09:00 +5°C° 0 mm 8 mps 757 mmHg 73%
    10:00 +6°C° 0.1 mm 9 mps 756 mmHg 71%
    11:00 +6°C° 0.1 mm 10 mps 755 mmHg 70%
    12:00 +7°C° 0.1 mm 11 mps 754 mmHg 68%
    13:00 +7°C° 0.3 mm 11 mps 753 mmHg 71%
    14:00 +6°C° 0.3 mm 11 mps 752 mmHg 74%
    15:00 +5°C° 0.3 mm 12 mps 750 mmHg 77%
    16:00 +5°C° 1.4 mm 12 mps 750 mmHg 79%
    17:00 +4°C° 1.4 mm 12 mps 749 mmHg 82%
    18:00 +4°C° 1.4 mm 12 mps 749 mmHg 84%
    19:00 +3°C° 2 mm 11 mps 749 mmHg 80%
    20:00 +3°C° 2 mm 10 mps 749 mmHg 76%
    21:00 +2°C° 2 mm 9 mps 750 mmHg 73%
    22:00 +2°C° 0 mm 9 mps 750 mmHg 76%
    23:00 +1°C° 0 mm 10 mps 751 mmHg 79%

    25 February, Tuesday

    Time Temperature Precipitation Wind Pressure Humidity
    00:00 0°C° 0 mm 10 mps 752 mmHg 82%
    01:00 0°C° 0.1 mm 10 mps 753 mmHg 82%
    02:00 0°C° 0.1 mm 9 mps 754 mmHg 81%
    03:00 0°C° 0.1 mm 9 mps 755 mmHg 81%
    04:00 0°C° 0 mm 8 mps 756 mmHg 78%
    05:00 0°C° 0 mm 7 mps 758 mmHg 75%
    06:00 0°C° 0 mm 7 mps 759 mmHg 73%
    07:00 0°C° 0 mm 7 mps 760 mmHg 72%
    08:00 +1°C° 0 mm 6 mps 761 mmHg 70%
    09:00 +2°C° 0 mm 6 mps 762 mmHg 69%
    10:00 +2°C° 0 mm 6 mps 762 mmHg 66%
    11:00 +3°C° 0 mm 6 mps 762 mmHg 63%
    12:00 +4°C° 0 mm 6 mps 763 mmHg 59%
    13:00 +4°C° 0 mm 6 mps 763 mmHg 58%
    14:00 +5°C° 0 mm 6 mps 763 mmHg 56%
    15:00 +5°C° 0 mm 6 mps 763 mmHg 54%
    16:00 +6°C° 0 mm 5 mps 763 mmHg 57%
    17:00 +5°C° 0 mm 5 mps 763 mmHg 61%
    18:00 +4°C° 0 mm 4 mps 764 mmHg 64%
    19:00 +4°C° 0 mm 4 mps 764 mmHg 68%
    20:00 +3°C° 0 mm 4 mps 764 mmHg 71%
    21:00 +3°C° 0 mm 4 mps 764 mmHg 75%
    22:00 +1°C° 0 mm 4 mps 764 mmHg 75%
    23:00 +1°C° 0 mm 4 mps 764 mmHg 75%

    26 February, Wednesday

    Time Temperature Precipitation Wind Pressure Humidity
    00:00 +1°C° 0 mm 4 mps 764 mmHg 76%
    01:00 +1°C° 0 mm 5 mps 764 mmHg 74%
    02:00 +1°C° 0 mm 5 mps 763 mmHg 73%
    03:00 +1°C° 0 mm 5 mps 763 mmHg 72%
    04:00 +1°C° 0 mm 5 mps 763 mmHg 72%
    05:00 +1°C° 0 mm 4 mps 762 mmHg 72%
    06:00 +1°C° 0 mm 4 mps 762 mmHg 72%
    07:00 +1°C° 0 mm 4 mps 761 mmHg 69%
    08:00 +3°C° 0 mm 4 mps 761 mmHg 66%
    09:00 +4°C° 0 mm 3 mps 761 mmHg 62%
    10:00 +5°C° 0 mm 4 mps 761 mmHg 55%
    11:00 +7°C° 0 mm 4 mps 760 mmHg 49%
    12:00 +10°C° 0 mm 4 mps 760 mmHg 42%
    13:00 +10°C° 0 mm 4 mps 759 mmHg 39%
    14:00 +11°C° 0 mm 4 mps 759 mmHg 37%
    15:00 +11°C° 0 mm 4 mps 758 mmHg 35%
    16:00 +10°C° 0 mm 3 mps 758 mmHg 39%
    17:00 +9°C° 0 mm 3 mps 758 mmHg 43%
    18:00 +8°C° 0 mm 2 mps 757 mmHg 48%
    19:00 +8°C° 0 mm 2 mps 757 mmHg 50%
    20:00 +7°C° 0 mm 2 mps 757 mmHg 53%
    21:00 +6°C° 0 mm 2 mps 757 mmHg 55%
    22:00 +6°C° 0 mm 2 mps 757 mmHg 57%
    23:00 +6°C° 0 mm 2 mps 757 mmHg 58%

    27 February, Thursday

    Time Temperature Precipitation Wind Pressure Humidity
    00:00 +6°C° 0 mm 2 mps 756 mmHg 60%
    01:00 +6°C° 0 mm 2 mps 756 mmHg 61%
    02:00 +6°C° 0 mm 2 mps 756 mmHg 62%
    03:00 +6°C° 0 mm 2 mps 756 mmHg 63%
    04:00 +6°C° 0 mm 2 mps 756 mmHg 64%
    05:00 +6°C° 0 mm 2 mps 756 mmHg 64%
    06:00 +5°C° 0 mm 2 mps 755 mmHg 65%
    07:00 +6°C° 0 mm 2 mps 755 mmHg 63%
    08:00 +7°C° 0 mm 2 mps 755 mmHg 62%
    09:00 +8°C° 0 mm 2 mps 755 mmHg 61%
    10:00 +10°C° 0 mm 2 mps 755 mmHg 54%
    11:00 +12°C° 0 mm 3 mps 755 mmHg 48%
    12:00 +14°C° 0 mm 3 mps 755 mmHg 41%
    13:00 +14°C° 0 mm 4 mps 755 mmHg 41%
    14:00 +15°C° 0 mm 5 mps 755 mmHg 40%
    15:00 +15°C° 0 mm 5 mps 755 mmHg 40%
    16:00 +14°C° 0 mm 5 mps 755 mmHg 43%
    17:00 +13°C° 0 mm 5 mps 755 mmHg 47%
    18:00 +10°C° 0 mm 5 mps 755 mmHg 51%
    19:00 +11°C° 0 mm 4 mps 755 mmHg 51%
    20:00 +11°C° 0 mm 4 mps 756 mmHg 51%
    21:00 +10°C° 0 mm 3 mps 756 mmHg 51%
    22:00 +10°C° 0 mm 3 mps 756 mmHg 54%
    23:00 +9°C° 0 mm 3 mps 756 mmHg 58%
    Show more